Вернуться в каталог

TRANSIT 4A

АктивенНавигацияLEO
NORAD 116·PAYLOAD·🇺🇸 United States

Запущен Jun 29, 1961 с Cape Canaveral Space Force Station

Loading…

Ближайшие Пролёты (ближайшие 24 часа)

TLE

СвежийSource: Space-Track

Эпоха: Sep 14, 2026, 07:51 UTC

1 00116U 61015A   26257.32773907  .00000012  00000-0  67501-4 0  9997
2 00116  66.8109  32.6981 0079199 214.6228 144.9681 13.92344137309113

Отслеживайте TRANSIT 4A в реальном времени с AllMySat

Download on the App Store